星链-30889 (STARLINK-30889 )

导读 | 星芒AI

STARLINK-30889 是 SpaceX Starlink 卫星互联网项目中的第 30889 颗卫星。该卫星属于星链计划的组网卫星,旨在为全球提供高速、低延迟的宽带互联网服务。它由 SpaceX 设计并发射,采用先进的推进和通信技术,具备自动避障功能,以确保在轨安全。该卫星运行在低地球轨道,与其他星链卫星协同工作,提升网络覆盖和连接稳定性。星链项目致力于缩小数字鸿沟,为偏远地区提供可靠的网络接入。

基本信息
目录编号:
58368
目录名称:
STARLINK-30889
国际标识:
2023-177T
轨道中心:
EARTH
卫星名称:
星链-30889
卫星全名:
星链-30889 (STARLINK-30889 )
卫星状态:
在轨 (已飞行762 天)
发射日期:
2023-11-18 UTC
国别 :
美国 (US)
星等 :
--
轨道信息
数据来源 国际轨道数据
星历时间: 2025-12-18T21:51:32+0800
1天前
查看轨道信息
半长轴: 6937.175km
偏心率: 0.000137
轨道倾角: 43.004°
近地点辐角 266.999°
升交点赤经 72.394°
平近点角 93.070°
近地点: 558.089km
远地点: 559.991km
周期: 95.837分钟
每日圈数: 15.025498
详细信息
固有亮度:
5
最大亮度:
0.3
卫星平台:
Starlink v2.0 mini
覆盖范围:
全球
运营商:
太空探索技术公司
运营商所在国:
美国
制造商(研发单位):
太空探索技术公司
制造商所在国:
美国
使用方式:
暂无
卫星简介
星链(Starlink)计划是由太空探索技术公司(SpaceX)提出的一个巨型低轨卫星互联网星座项目,计划在2019年至2024年间在太空搭建由约1.2万颗卫星组成的“星链”网络,其中1584颗将部署在地球上空550千米处的近地轨道,并从2020年开始工作。该卫星仍在工作。
2D轨道图
3D轨道图
轨道高度分析图
轨道倾角分析图
轨道综合分析图
查看轨道综合分析图